• en Belgique
  • Liste des pays
  • À 7 jours
  • Température de l'eau
  • Carte satellitaire
  • Carte météo
  • Widgets météo
  • user-avatar
    Se connecter

    Météo par heure à Yulara

    Ce jour, 25 Février, Dimanche

    Heure Température Précipitation Vent Pression Humidité
    00:00 +29°C° 0 mm 9 m/s 716 mmHg 29%
    01:00 +28°C° 0 mm 9 m/s 716 mmHg 32%
    02:00 +28°C° 0 mm 9 m/s 716 mmHg 35%
    03:00 +27°C° 0 mm 9 m/s 716 mmHg 40%
    04:00 +26°C° 0 mm 8 m/s 716 mmHg 44%
    05:00 +24°C° 0 mm 8 m/s 716 mmHg 48%
    06:00 +23°C° 0 mm 7 m/s 716 mmHg 51%
    07:00 +24°C° 0 mm 7 m/s 717 mmHg 49%
    08:00 +26°C° 0 mm 7 m/s 717 mmHg 47%
    09:00 +27°C° 0 mm 7 m/s 717 mmHg 44%
    10:00 +28°C° 0 mm 6 m/s 717 mmHg 39%
    11:00 +30°C° 0 mm 6 m/s 717 mmHg 34%
    12:00 +33°C° 0 mm 5 m/s 716 mmHg 29%
    13:00 +33°C° 0 mm 5 m/s 716 mmHg 27%
    14:00 +34°C° 0 mm 4 m/s 715 mmHg 24%
    15:00 +36°C° 0 mm 3 m/s 715 mmHg 21%
    16:00 +36°C° 0 mm 3 m/s 715 mmHg 21%
    17:00 +36°C° 0 mm 3 m/s 715 mmHg 21%
    18:00 +36°C° 0 mm 3 m/s 715 mmHg 20%
    19:00 +35°C° 0 mm 4 m/s 715 mmHg 21%
    20:00 +33°C° 0 mm 5 m/s 715 mmHg 22%
    21:00 +32°C° 0 mm 6 m/s 715 mmHg 23%
    22:00 +30°C° 0 mm 6 m/s 715 mmHg 22%
    23:00 +29°C° 0 mm 7 m/s 716 mmHg 20%

    Demain, 26 Février, Lundi

    Heure Température Précipitation Vent Pression Humidité
    00:00 +28°C° 0 mm 7 m/s 716 mmHg 19%
    01:00 +28°C° 0 mm 7 m/s 716 mmHg 20%
    02:00 +27°C° 0 mm 6 m/s 715 mmHg 21%
    03:00 +26°C° 0 mm 6 m/s 715 mmHg 22%
    04:00 +25°C° 0 mm 5 m/s 715 mmHg 23%
    05:00 +25°C° 0 mm 5 m/s 715 mmHg 25%
    06:00 +23°C° 0 mm 4 m/s 716 mmHg 27%
    07:00 +26°C° 0 mm 5 m/s 716 mmHg 25%
    08:00 +27°C° 0 mm 6 m/s 716 mmHg 23%
    09:00 +28°C° 0 mm 6 m/s 716 mmHg 22%
    10:00 +30°C° 0 mm 5 m/s 716 mmHg 21%
    11:00 +32°C° 0 mm 4 m/s 716 mmHg 19%
    12:00 +34°C° 0 mm 4 m/s 715 mmHg 18%
    13:00 +35°C° 0 mm 3 m/s 715 mmHg 17%
    14:00 +36°C° 0 mm 2 m/s 714 mmHg 16%
    15:00 +36°C° 0 mm 1 m/s 714 mmHg 15%
    16:00 +36°C° 0 mm 1 m/s 714 mmHg 15%
    17:00 +36°C° 0 mm 1 m/s 714 mmHg 15%
    18:00 +36°C° 0 mm 1 m/s 714 mmHg 14%
    19:00 +36°C° 0 mm 2 m/s 714 mmHg 15%
    20:00 +35°C° 0 mm 3 m/s 714 mmHg 16%
    21:00 +34°C° 0 mm 3 m/s 715 mmHg 17%
    22:00 +33°C° 0 mm 4 m/s 715 mmHg 16%
    23:00 +32°C° 0 mm 4 m/s 715 mmHg 16%

    Après-demain, 27 Février, Mardi

    Heure Température Précipitation Vent Pression Humidité
    00:00 +30°C° 0 mm 4 m/s 715 mmHg 16%
    01:00 +29°C° 0 mm 4 m/s 714 mmHg 17%
    02:00 +29°C° 0 mm 4 m/s 714 mmHg 17%
    03:00 +28°C° 0 mm 4 m/s 714 mmHg 18%
    04:00 +27°C° 0 mm 4 m/s 714 mmHg 19%
    05:00 +27°C° 0 mm 4 m/s 714 mmHg 20%
    06:00 +26°C° 0 mm 3 m/s 715 mmHg 22%
    07:00 +28°C° 0 mm 4 m/s 715 mmHg 20%
    08:00 +30°C° 0 mm 4 m/s 715 mmHg 18%
    09:00 +33°C° 0 mm 5 m/s 716 mmHg 16%
    10:00 +34°C° 0 mm 4 m/s 715 mmHg 15%
    11:00 +36°C° 0 mm 3 m/s 715 mmHg 14%
    12:00 +38°C° 0 mm 2 m/s 715 mmHg 12%
    13:00 +39°C° 0 mm 2 m/s 714 mmHg 12%
    14:00 +40°C° 0 mm 3 m/s 714 mmHg 12%
    15:00 +42°C° 0 mm 3 m/s 713 mmHg 13%
    16:00 +42°C° 0 mm 4 m/s 713 mmHg 13%
    17:00 +42°C° 0 mm 4 m/s 713 mmHg 13%
    18:00 +42°C° 0 mm 4 m/s 713 mmHg 13%
    19:00 +40°C° 0 mm 4 m/s 714 mmHg 14%
    20:00 +38°C° 0 mm 4 m/s 714 mmHg 16%
    21:00 +37°C° 0 mm 3 m/s 714 mmHg 18%
    22:00 +36°C° 0 mm 4 m/s 714 mmHg 19%
    23:00 +35°C° 0 mm 4 m/s 714 mmHg 20%

    28 Février, Mercredi

    Heure Température Précipitation Vent Pression Humidité
    00:00 +35°C° 0 mm 5 m/s 714 mmHg 21%
    01:00 +34°C° 0 mm 5 m/s 714 mmHg 24%
    02:00 +32°C° 0 mm 5 m/s 714 mmHg 28%
    03:00 +30°C° 0 mm 6 m/s 714 mmHg 31%
    04:00 +30°C° 0 mm 6 m/s 714 mmHg 32%
    05:00 +29°C° 0 mm 5 m/s 715 mmHg 32%
    06:00 +28°C° 0 mm 5 m/s 715 mmHg 33%
    07:00 +30°C° 0 mm 6 m/s 716 mmHg 30%
    08:00 +32°C° 0 mm 6 m/s 716 mmHg 27%
    09:00 +33°C° 0 mm 7 m/s 717 mmHg 24%
    10:00 +35°C° 0 mm 6 m/s 717 mmHg 20%
    11:00 +38°C° 0 mm 6 m/s 716 mmHg 17%
    12:00 +40°C° 0 mm 5 m/s 716 mmHg 13%
    13:00 +41°C° 0 mm 6 m/s 716 mmHg 13%
    14:00 +42°C° 0 mm 6 m/s 715 mmHg 13%
    15:00 +43°C° 0 mm 7 m/s 715 mmHg 12%
    16:00 +43°C° 0 mm 7 m/s 715 mmHg 13%
    17:00 +41°C° 0 mm 7 m/s 715 mmHg 13%
    18:00 +40°C° 0 mm 8 m/s 715 mmHg 14%
    19:00 +39°C° 0 mm 7 m/s 716 mmHg 15%
    20:00 +38°C° 0 mm 7 m/s 716 mmHg 17%
    21:00 +35°C° 0 mm 6 m/s 717 mmHg 18%
    22:00 +35°C° 0 mm 7 m/s 717 mmHg 19%
    23:00 +34°C° 0 mm 7 m/s 717 mmHg 20%

    1 Mars, Jeudi

    Heure Température Précipitation Vent Pression Humidité
    00:00 +33°C° 0 mm 7 m/s 717 mmHg 21%
    01:00 +32°C° 0 mm 7 m/s 716 mmHg 22%
    02:00 +30°C° 0 mm 7 m/s 716 mmHg 22%
    03:00 +30°C° 0 mm 7 m/s 716 mmHg 23%
    04:00 +29°C° 0 mm 7 m/s 716 mmHg 23%
    05:00 +28°C° 0 mm 7 m/s 716 mmHg 24%
    06:00 +28°C° 0 mm 6 m/s 716 mmHg 24%
    07:00 +29°C° 0 mm 7 m/s 716 mmHg 22%
    08:00 +32°C° 0 mm 8 m/s 717 mmHg 21%
    09:00 +33°C° 0 mm 9 m/s 717 mmHg 19%
    10:00 +35°C° 0 mm 9 m/s 717 mmHg 17%
    11:00 +38°C° 0 mm 8 m/s 716 mmHg 14%
    12:00 +40°C° 0 mm 8 m/s 716 mmHg 12%
    13:00 +41°C° 0 mm 7 m/s 715 mmHg 11%
    14:00 +41°C° 0 mm 6 m/s 714 mmHg 11%
    15:00 +42°C° 0 mm 5 m/s 714 mmHg 10%
    16:00 +42°C° 0 mm 5 m/s 714 mmHg 11%
    17:00 +41°C° 0 mm 5 m/s 714 mmHg 11%
    18:00 +41°C° 0 mm 5 m/s 714 mmHg 11%
    19:00 +40°C° 0 mm 5 m/s 714 mmHg 13%
    20:00 +37°C° 0 mm 4 m/s 715 mmHg 14%
    21:00 +36°C° 0 mm 4 m/s 715 mmHg 16%
    22:00 +35°C° 0 mm 5 m/s 715 mmHg 16%
    23:00 +34°C° 0 mm 6 m/s 715 mmHg 17%

    2 Mars, Vendredi

    Heure Température Précipitation Vent Pression Humidité
    00:00 +34°C° 0 mm 6 m/s 715 mmHg 17%
    01:00 +33°C° 0 mm 6 m/s 714 mmHg 19%
    02:00 +32°C° 0 mm 6 m/s 714 mmHg 21%
    03:00 +32°C° 0 mm 5 m/s 714 mmHg 22%
    04:00 +30°C° 0 mm 5 m/s 715 mmHg 24%
    05:00 +30°C° 0 mm 5 m/s 715 mmHg 26%
    06:00 +29°C° 0 mm 5 m/s 715 mmHg 28%
    07:00 +32°C° 0 mm 6 m/s 715 mmHg 26%
    08:00 +34°C° 0 mm 7 m/s 715 mmHg 23%
    09:00 +36°C° 0 mm 7 m/s 716 mmHg 21%
    10:00 +38°C° 0 mm 8 m/s 715 mmHg 20%
    11:00 +40°C° 0 mm 8 m/s 715 mmHg 18%
    12:00 +41°C° 0 mm 8 m/s 714 mmHg 17%
    13:00 +43°C° 0 mm 7 m/s 714 mmHg 17%
    14:00 +43°C° 0 mm 7 m/s 713 mmHg 18%
    15:00 +42°C° 0 mm 6 m/s 713 mmHg 18%
    16:00 +41°C° 0 mm 6 m/s 713 mmHg 19%
    17:00 +41°C° 0 mm 6 m/s 713 mmHg 20%
    18:00 +40°C° 0 mm 5 m/s 713 mmHg 21%
    19:00 +38°C° 0 mm 4 m/s 713 mmHg 22%
    20:00 +37°C° 0 mm 3 m/s 714 mmHg 24%
    21:00 +36°C° 0 mm 2 m/s 714 mmHg 26%
    22:00 +36°C° 0 mm 3 m/s 714 mmHg 28%
    23:00 +35°C° 0 mm 4 m/s 713 mmHg 30%
    Voir plus